CanjetBLOCKVirtuelBLOCKQcBLOCKBLOCKBLOCKBLOCKBLOCKBLOCKBLOCKBLOCKBLOCKBLOCKBLOCKvolsBLOCKavecBLOCKFS-kACARS2022-08-08BLOCK09colon41am

volsBLOCKBLOCKBLOCKBLOCKBLOCKpilotesBLOCKBLOCKBLOCKBLOCKBLOCKBLOCKBLOCKBLOCKtypeBLOCKBLOCKdepBLOCKBLOCKarrBLOCKBLOCKBLOCKBLOCKBLOCKaltBLOCKBLOCKBLOCKBLOCKBLOCKgsBLOCKBLOCKBLOCKBLOCKstatut

aucunBLOCKvolsBLOCKenBLOCKceBLOCKmomentBLOCKavecBLOCKFS-KACARSBLOCK













BLOCKAppuyerBLOCKsurBLOCKF5BLOCKpourBLOCKactualiserBLOCKBLOCKBLOCKMiseBLOCKaBLOCKjourcolonBLOCK09colon41colon17amCanjetBLOCKvirtuelBLOCKQC

Bienvenue

Publié par Michel Ayotte le 2022-01-19

Bienvenue aux nouveaux pilotes chez Canjetvirtuel-Québec 

 

 

5 très bonnes raisons de devenir pilote | Collège iFly

Vous trouverez votre place comme pilote chez nous!


Bienvenue chez Canjetvirtuel-Q

Publié par Michel Ayotte le 2013-06-14

 

Canjetvirtuel-Québec est une compagnie aérienne virtuelle qui a été fondée par 2 passionnés de la simulation de vol.

Elle est opérée avec les Boeing 737. Exceptionnelement et pour votre plaisir tous les autres versions de Boeing et Airbus sont autorisées.

Ces appareils pouvant faire des vols cargos ou des vols passagers, que ce soit au Canada, Europe, États-Unis, Mexique, Caraïbes et autres destinations mondiales.

Vous trouverez votre place comme pilote chez nous!



Avis

Aux fins de la simulation de vol seulement. CanjetVirtuel Québec n'est en aucun cas affilié avec n'importe quelle compagnie aérienne du monde réel. CanjetVirtuel Québec est un site à but non lucratif gérée par des amateurs de simulation de vol. Toutes les images sont la propriété exclusive de leurs propriétaires respectifs.
| propulsé par phpVMS, © 2013-2020.

Notice

For flight simulation purposes only. CanjetVirtuel Quebec is in no way affiliated with any real world airline. CanjetVirtuel Quebec is a non-profit site run by flight simulation enthusiasts. All images are the sole property of their respective owners.
| powered by phpVMS, © 2013-2020.

Affiliations

Vatsim

Les statistiques du site

Nombre de pilotes: 14
Total des vols effectués: 8703
Trajets disponibles: 736
Passagers transportés: 2148395
Total des heures de vol: 29585
Distance totale (NM): 11559325
Pilotes en ligne: 0

Nouvelles

Bienvenue
01/19/2022
Bienvenue chez Canjetvirtuel-Q
06/14/2013

METAR

CYHZ 081300Z 36009KT 15SM SCT031 OVC090 21/17 A3000 RMK SC4AC4 SLP160 DENSITY ALT 1200FT

CYQB 081300Z 09009KT 25SM FEW010 FEW015 SCT054 BKN093 BKN210 15/12 A3003 RMK SF1SC2SC2AC2CC1 SF TR VIS LWR N SLP173

CYUL 081324Z 02010G16KT 15SM -DZ OVC007 16/15 A2996 RMK ST8 -DZ INTMT SLP147 DENSITY ALT 200FT

CYYZ 081327Z 24010KT 6SM R23/5500VP6000FT/D -RA BKN025 BKN050 OVC160 25/23 A2991 RMK SC5SC2AC1 SLP126 DENSITY ALT 2000FT